Location: Unspecified
(0.0000°N, 0.0000°E)
Time: 21:17:00
(UTC+00:00)

THORAD DELTA 1 DEB - Visible Passes

Search period start: 12 January 2025 00:00
Search period end: 22 January 2025 00:00
Orbit: 1456 x 2054 km, 101.2° (Epoch: 11 January)

Date Brightness Start Highest point End Pass type
(mag) Time Alt. Az. Time Alt. Az. Time Alt. Az.
12 Jan ? 02:35:05 37° ESE 02:35:05 37° ESE 02:42:09 10° S visible
12 Jan ? 04:36:50 21° WSW 04:36:50 21° WSW 04:40:19 10° SW visible
13 Jan ? 02:55:50 50° SE 02:55:50 50° SE 03:02:50 10° S visible
13 Jan ? 04:57:33 12° WSW 04:57:33 12° WSW 04:58:40 10° WSW visible
14 Jan ? 03:16:34 58° S 03:16:34 58° S 03:23:12 10° S visible
15 Jan ? 01:35:34 11° ESE 01:35:54 11° ESE 01:37:46 10° ESE visible
15 Jan ? 03:37:18 49° SW 03:37:18 49° SW 03:43:17 10° SSW visible
16 Jan ? 01:56:18 18° ESE 01:56:18 18° ESE 02:01:13 10° SSE visible
16 Jan ? 03:58:01 36° SW 03:58:01 36° SW 04:03:03 10° SSW visible
17 Jan ? 02:17:01 27° ESE 02:17:01 27° ESE 02:22:49 10° SSE visible
17 Jan ? 04:18:44 25° WSW 04:18:44 25° WSW 04:22:28 10° SW visible
18 Jan ? 02:37:44 37° SE 02:37:44 37° SE 02:43:48 10° S visible
18 Jan ? 04:39:27 16° WSW 04:39:27 16° WSW 04:41:25 10° SW visible
19 Jan ? 02:58:26 44° SSE 02:58:26 44° SSE 03:04:24 10° S visible
20 Jan ? 03:19:09 44° S 03:19:09 44° S 03:24:41 10° SSW visible
21 Jan ? 01:38:08 13° ESE 01:38:08 13° ESE 01:40:41 10° SE visible
21 Jan ? 03:39:52 37° SSW 03:39:52 37° SSW 03:44:41 10° SSW visible
